Location: ?ejeti?ky
(50.4060°N, 14.9016°E)
Time: 22:39:50
(UTC+00:00)

X-37B - Pass Details

Date: 07 December 2021
Orbit: 334 x 337 km, 45.0° (Epoch: 11 January)

Event Time Altitude Azimuth Distance (km) Brightness Sun altitude
Rises 17:15:17 0° 217° (SW) 2,096 5.0 -20.9°
Reaches altitude 10° 17:17:59 10° 187° (S) 1,263 3.4 -21.3°
Enters shadow 17:18:04 10° 186° (S) 1,247 3.3 -21.3°
